Terminal Aerodrome Forecast
Issued by NWS

Home | Current Version | Previous Version | Text Only | Print | Product List | Glossary On
Versions: 1 2 3 4 5 6 7 8 9 10 11 12 13 14 15 16 17 18 19
000
FTUS43 KSGF 260500 CCA
TAFJLN
TAF COR
KJLN 260534Z 2606/2706 32010KT P6SM OVC025
     FM260700 VRB04KT 6SM BR FEW025
      TEMPO 2610/2613 3SM BR SCT005
     FM261400 22009KT P6SM SKC
     FM261700 24014G20KT P6SM SKC
     FM270000 29005KT P6SM SKC=

USA.gov is the U.S. government's official web portal to all federal, state and local government web resources and services.